Date,TemperatureHighF,TemperatureAvgF,TemperatureLowF,DewpointHighF,DewpointAvgF,DewpointLowF,HumidityHigh,HumidityAvg,HumidityLow,PressureMaxIn,PressureMinIn,WindSpeedMaxMPH,WindSpeedAvgMPH,GustSpeedMaxMPH,PrecipitationSumIn
2013-1-5,80.3,77.6,79.7,74.0,68.0,-99.9,82,77,77,0.00,0.00,19,-17,20,0.00
2013-1-6,80.3,79.4,76.2,75.0,72.9,71.0,89,80,75,0.00,0.00,18,10,20,0.00
2013-1-7,80.4,77.5,72.1,75.0,72.6,69.0,95,85,78,0.00,0.00,17,10,18,0.00
2013-1-8,80.7,80.0,79.2,74.0,72.8,71.0,81,78,75,0.00,0.00,27,17,27,0.00
2013-1-9,81.5,80.9,80.2,76.0,75.3,73.0,86,83,79,0.00,0.00,23,19,26,0.00
2013-1-10,81.6,80.7,79.9,76.0,75.4,74.0,86,83,80,0.00,0.00,25,18,30,0.00
2013-1-11,80.7,79.0,79.2,74.0,70.9,-99.9,83,78,74,0.00,0.00,20,4,22,0.00
2013-1-12,80.8,78.8,73.3,75.0,73.0,70.0,92,82,76,0.00,0.00,24,15,30,0.06
2013-1-13,81.5,80.3,79.4,74.0,72.7,71.0,82,77,72,0.00,0.00,24,15,26,0.00
2013-1-14,81.0,80.0,77.9,75.0,74.1,71.0,84,82,79,0.00,0.00,19,14,22,0.01
2013-1-15,79.8,79.4,78.7,74.0,71.7,70.0,83,77,73,0.00,0.00,22,15,24,0.00
2013-1-16,80.1,79.4,78.5,73.0,71.5,70.0,80,77,72,0.00,0.00,15,10,17,0.00
2013-1-17,79.8,72.3,67.4,72.0,66.9,63.0,93,83,75,0.00,0.00,21,8,26,0.00
2013-1-18,73.9,67.4,66.0,62.0,55.8,-99.9,83,72,60,0.00,0.00,18,-25,27,0.00
2013-1-19,77.5,70.9,63.5,66.0,63.3,61.0,90,77,63,0.00,0.00,13,6,16,0.00
2013-1-20,77.0,70.5,60.5,67.0,63.1,58.0,92,78,64,0.00,0.00,12,6,17,0.00
2013-1-21,78.0,71.7,65.4,69.0,65.6,62.0,91,81,69,0.00,0.00,16,7,19,0.00
2013-1-22,78.1,72.9,65.6,71.0,67.8,64.0,95,84,73,0.00,0.00,17,9,20,0.00
2013-1-23,76.7,71.4,67.2,71.0,67.6,65.0,94,88,73,0.00,0.00,15,6,18,0.10
2013-1-24,77.3,71.1,68.0,71.0,68.4,66.0,96,91,78,0.00,0.00,16,7,22,1.45
2013-1-25,77.2,75.5,69.7,70.0,67.6,66.0,95,77,69,0.00,0.00,22,14,26,0.24
2013-1-26,78.1,73.7,65.9,67.0,65.1,61.0,85,75,65,0.00,0.00,15,8,19,0.00
2013-1-27,79.7,75.4,66.4,75.0,70.8,64.0,94,85,79,0.00,0.00,19,11,20,0.00
2013-1-28,80.5,79.5,78.6,76.0,74.3,72.0,88,84,79,0.00,0.00,19,15,21,0.00
2013-1-29,80.9,79.5,72.6,76.0,74.8,71.0,95,85,79,0.00,0.00,23,14,29,0.63
2013-1-30,81.8,79.2,78.4,76.0,72.7,-99.9,87,83,78,0.00,0.00,24,1,27,0.06
2013-1-31,79.3,74.5,70.9,75.0,71.8,69.0,96,91,81,0.00,0.00,14,7,18,0.07